Niue International (NIUE)

Aerodrome — Elev 209
Niue
S019.04.48.100 W169.55.32.300
Loading chart...

Current Weather

NIUE 202300Z AUTO 04010KT 360V070 //// // ///////// 27/22 Q1009

Published 1 hours 34 minutes ago

Airport Activity

Loading chart...
Loading chart...

Standard ATC Positions

CallsignRadio Name / Freq / Voice Room / TypeFrequencyVoice RoomType
NZZO_FSS Auckland Radio
128.900
nzzo_fss
128.900nzzo_fss
NIUE_TWR Niue Tower
118.100
niue_twr
118.100niue_twr
UNICOM NZZO UNICOM
122.800
unicom_nzzo
122.800unicom_nzzo

Event ATC Positions

This airport has additional control positions that are designated for use only during major events.
These non-standard positions must not be staffed unless specifically activated by the VATNZ Airspace Director as part of an official VATNZ event.
At all other times, controllers should use the designated Standard ATC Positions.

CallsignRadio Name / Freq / Voice Room / TypeFrequencyVoice RoomType
NSFA_CTR Faleolo Control
123.800
nsfa_ctr
123.800nsfa_ctr